アトラス彗星

C/2022 R2 ( ATLAS )

English version
Home page
Updated on December 28, 2022

---------------------------------------------------------------------

・ プロフィール

発見日 2022年9月14日
発見光度 17.6等
発見者 Asteroid Terrestrial-Impact Last Alert System (ATLAS) search program

・ 写真集

・ 軌道要素

Epoch 2023 Feb. 25.0 TT = JDT 2460000.5
T 2022 Oct. 25.22024 TT                                 Rudenko
q   0.6325576            (2000.0)            P               Q
z  +0.0023757      Peri.   78.37540     -0.41427167     -0.58945593
 +/-0.0000446      Node    60.40339     +0.11776348     -0.79025266
e   0.9984972      Incl.   52.89628     +0.90250249     -0.16745881
>From 298 observations 2022 Sept. 14-Oct. 30, mean residual 0".7.

・ 星図

・ 光度変化

        m1 = 15.0 + 5 logΔ + 10.0 log r

---------------------------------------------------------------------

軌道要素はM.P.E.C. 2022-Y15に掲載されたものです。
星図はステラナビゲータ Ver.10 (アストロアーツ) で作成したものです。
光度グラフはComet for Windowsで作成したものです。

---------------------------------------------------------------------

Copyright(C) Seiichi Yoshida (comet@aerith.net). All rights reserved.